This is the latest recevied weather packets stored in our database for station/object KF4LQQ-13. If no packets are shown the sender has not sent any weather packets the latest 10 day(s).
| Time | Temp. | Humidity | Pressure | Rain* | Wind** | Luminosity | Snow |
|---|---|---|---|---|---|---|---|
| 1777584197 | 27.22° C | - | 1009.3 hPa | 0 mm | - | - | - |
| 1777583958 | 27.22° C | - | 1009.3 hPa | 0 mm | - | - | - |
| 1777583358 | 28.33° C | - | 1009.2 hPa | 0 mm | - | - | - |
| 1777582757 | 28.89° C | - | 1009.2 hPa | 0 mm | - | - | - |
| 1777582157 | 28.33° C | - | 1009.2 hPa | 0 mm | - | - | - |
| 1777581878 | 28.89° C | - | 1009.3 hPa | 0 mm | - | - | - |
| 1777581557 | 29.44° C | - | 1009 hPa | 0 mm | - | - | - |
| 1777580957 | 29.44° C | - | 1009.2 hPa | 0 mm | - | - | - |
| 1777580356 | 28.89° C | - | 1009.3 hPa | 0 mm | - | - | - |
| 1777580048 | 29.44° C | - | 1009.4 hPa | 0 mm | - | - | - |
| 1777579756 | 29.44° C | - | 1009.4 hPa | 0 mm | - | - | - |
| 1777579156 | 30° C | - | 1009.2 hPa | 0 mm | - | - | - |
| 1777578556 | 29.44° C | - | 1009.3 hPa | 0 mm | - | - | - |
| 1777577955 | 29.44° C | - | 1009.4 hPa | 0 mm | - | - | - |
| 1777577355 | 30° C | - | 1009.6 hPa | 0 mm | - | - | - |
| 1777576755 | 30° C | - | 1009.7 hPa | 0 mm | - | - | - |
| 1777576155 | 30° C | - | 1009.8 hPa | 0 mm | - | - | - |
| 1777575552 | 28.89° C | - | 1009.7 hPa | 0 mm | - | - | - |
| 1777574952 | 28.89° C | - | 1010 hPa | 0 mm | - | - | - |
| 1777574352 | 29.44° C | - | 1010 hPa | 0 mm | - | - | - |
| 1777573430 | 28.89° C | - | 1010 hPa | 0 mm | - | - | - |
| 1777573152 | 28.89° C | - | 1010 hPa | 0 mm | - | - | - |
| 1777572548 | 28.89° C | - | 1010 hPa | 0 mm | - | - | - |
| 1777571948 | 28.89° C | - | 1010.2 hPa | 0 mm | - | - | - |
| 1777571348 | 28.33° C | - | 1010.3 hPa | 0 mm | - | - | - |
* Rain since midnight (hover to see other rain measurements)
** Current wind speed in m/s (hover to see current wind gust speed)